BAW232 EGCC-EGJJ

Flight info

Callsign BAW232
Flight time N/A
Altitude 23000
Route ASMIM DCT NOKIN P17 BEPHE/N0406F220 DCT OSSEP DCT ELNIF DCT ZESPE DCT DAWLY DCT ABBEW/N0401F210 N90 ENHEL N862 SKERY
Aircraft A320/M-SDE3FGHIRWY/LB1

Departure

Time 2026-05-05 19:06
Airport Manchester Airport (EGCC)

Arrival

Time N/A
Airport Jersey Airport (EGJJ)
Time Latitude Longitude Altitude Speed Heading
2026-05-05 18:30 53.36948 -2.28696 248 ft 0 kts 135°
2026-05-05 18:53 53.36955 -2.28709 247 ft 3 kts 135°
2026-05-05 18:53 53.36971 -2.28735 247 ft 3 kts 143°
2026-05-05 18:53 53.36987 -2.28739 247 ft 3 kts 220°
2026-05-05 18:53 53.36985 -2.28744 247 ft 3 kts 225°
2026-05-05 18:54 53.36967 -2.28773 247 ft 3 kts 225°
2026-05-05 18:54 53.36960 -2.28786 247 ft 0 kts 225°
2026-05-05 18:57 53.36959 -2.28787 247 ft 1 kts 225°
2026-05-05 18:57 53.36947 -2.28807 247 ft 4 kts 225°
2026-05-05 18:57 53.36922 -2.28849 247 ft 6 kts 225°
2026-05-05 18:58 53.36883 -2.28912 247 ft 9 kts 225°
2026-05-05 18:58 53.36832 -2.28995 247 ft 11 kts 219°
2026-05-05 18:58 53.36752 -2.29036 247 ft 13 kts 166°
2026-05-05 18:58 53.36677 -2.28925 247 ft 16 kts 139°
2026-05-05 18:59 53.36591 -2.28801 247 ft 17 kts 130°
2026-05-05 18:59 53.36532 -2.28681 247 ft 12 kts 129°
2026-05-05 18:59 53.36467 -2.28571 247 ft 15 kts 136°
2026-05-05 18:59 53.36367 -2.28458 247 ft 19 kts 160°
2026-05-05 19:00 53.36245 -2.28324 247 ft 23 kts 136°
2026-05-05 19:00 53.36125 -2.28117 247 ft 17 kts 135°
2026-05-05 19:00 53.36045 -2.27989 247 ft 18 kts 135°
2026-05-05 19:00 53.35962 -2.27869 247 ft 14 kts 153°
2026-05-05 19:01 53.35851 -2.27856 247 ft 18 kts 187°
2026-05-05 19:01 53.35725 -2.27876 247 ft 20 kts 185°
2026-05-05 19:01 53.35608 -2.27897 247 ft 3 kts 185°
2026-05-05 19:01 53.35570 -2.27903 247 ft 7 kts 186°
2026-05-05 19:02 53.35509 -2.27914 246 ft 11 kts 186°
2026-05-05 19:02 53.35424 -2.27972 243 ft 15 kts 219°
2026-05-05 19:02 53.35338 -2.28110 240 ft 20 kts 225°
2026-05-05 19:02 53.35230 -2.28303 233 ft 25 kts 231°
2026-05-05 19:03 53.35158 -2.28458 230 ft 1 kts 232°
2026-05-05 19:03 53.35145 -2.28485 230 ft 5 kts 232°
2026-05-05 19:03 53.35108 -2.28563 232 ft 10 kts 232°
2026-05-05 19:03 53.35061 -2.28658 233 ft 14 kts 228°
2026-05-05 19:04 53.34944 -2.28868 228 ft 29 kts 226°
2026-05-05 19:04 53.34801 -2.29064 223 ft 27 kts 192°
2026-05-05 19:04 53.34667 -2.28986 216 ft 10 kts 108°
2026-05-05 19:04 53.34689 -2.28917 220 ft 0 kts 52°
2026-05-05 19:05 53.34784 -2.28717 230 ft 55 kts 51°
2026-05-05 19:05 53.35158 -2.27945 242 ft 113 kts 52°
2026-05-05 19:05 53.35726 -2.26720 382 ft 144 kts 54°
2026-05-05 19:06 53.36313 -2.25357 1013 ft 143 kts 52°
2026-05-05 19:06 53.36946 -2.24067 1545 ft 147 kts 50°
2026-05-05 19:06 53.37650 -2.22648 1872 ft 170 kts 52°
2026-05-05 19:06 53.38571 -2.21206 2173 ft 197 kts 27°
2026-05-05 19:07 53.40005 -2.20988 2569 ft 229 kts 347°
2026-05-05 19:07 53.41399 -2.22564 3056 ft 259 kts 312°
2026-05-05 19:07 53.42401 -2.25130 3931 ft 267 kts 298°
2026-05-05 19:07 53.43207 -2.27962 4972 ft 268 kts 294°
2026-05-05 19:08 53.43955 -2.30830 5997 ft 269 kts 294°
2026-05-05 19:08 53.44717 -2.33696 6945 ft 270 kts 294°
2026-05-05 19:08 53.45514 -2.36566 7875 ft 272 kts 296°
2026-05-05 19:08 53.46339 -2.39423 8812 ft 273 kts 296°
2026-05-05 19:09 53.46909 -2.42472 9715 ft 277 kts 277°
2026-05-05 19:09 53.46797 -2.45743 10366 ft 291 kts 263°
2026-05-05 19:09 53.46438 -2.49219 10602 ft 314 kts 262°
2026-05-05 19:09 53.46022 -2.52961 10802 ft 336 kts 261°
2026-05-05 19:10 53.45558 -2.56874 11338 ft 346 kts 257°
2026-05-05 19:10 53.44686 -2.60675 12000 ft 353 kts 243°
2026-05-05 19:10 53.43285 -2.64036 12680 ft 360 kts 230°
2026-05-05 19:10 53.41363 -2.66838 13389 ft 366 kts 216°
2026-05-05 19:11 53.39106 -2.68757 14080 ft 372 kts 202°
2026-05-05 19:11 53.36668 -2.70287 14718 ft 375 kts 202°
2026-05-05 19:11 53.34213 -2.71818 15361 ft 377 kts 202°
2026-05-05 19:11 53.31744 -2.73355 15983 ft 380 kts 202°
2026-05-05 19:12 53.29257 -2.74904 16614 ft 383 kts 202°
2026-05-05 19:12 53.26747 -2.76467 17266 ft 385 kts 202°
2026-05-05 19:12 53.24222 -2.78039 17930 ft 388 kts 202°
2026-05-05 19:12 53.21680 -2.79618 18554 ft 391 kts 202°
2026-05-05 19:13 53.19117 -2.81208 19142 ft 394 kts 202°
2026-05-05 19:13 53.16536 -2.82808 19771 ft 397 kts 202°
2026-05-05 19:13 53.13933 -2.84420 20363 ft 400 kts 202°
2026-05-05 19:13 53.11310 -2.86028 20923 ft 403 kts 201°
2026-05-05 19:14 53.08577 -2.87170 21443 ft 409 kts 191°
2026-05-05 19:14 53.05717 -2.87494 21947 ft 414 kts 180°
2026-05-05 19:14 53.02834 -2.86973 22440 ft 419 kts 173°
2026-05-05 19:14 52.99950 -2.86169 22900 ft 422 kts 173°
2026-05-05 19:15 52.97045 -2.85376 23016 ft 426 kts 173°
2026-05-05 19:15 52.94080 -2.84583 23047 ft 438 kts 173°
2026-05-05 19:15 52.91047 -2.83774 23040 ft 444 kts 173°
2026-05-05 19:15 52.87987 -2.82952 23036 ft 445 kts 172°
2026-05-05 19:16 52.84928 -2.82128 23030 ft 446 kts 172°
2026-05-05 19:16 52.81868 -2.81305 23028 ft 446 kts 172°
2026-05-05 19:16 52.78803 -2.80477 23028 ft 446 kts 172°
2026-05-05 19:16 52.75782 -2.79660 23031 ft 446 kts 172°
2026-05-05 19:17 52.73185 -2.78960 23020 ft 446 kts 172°
2026-05-05 19:17 52.71513 -2.78511 23016 ft 446 kts 173°
2026-05-05 19:17 52.68451 -2.77696 23017 ft 446 kts 173°
2026-05-05 19:18 52.65386 -2.76886 23015 ft 446 kts 173°
2026-05-05 19:18 52.62319 -2.76123 23014 ft 445 kts 176°
2026-05-05 19:18 52.60276 -2.75923 23014 ft 443 kts 181°
2026-05-05 19:18 52.57203 -2.76116 23012 ft 442 kts 185°
2026-05-05 19:19 52.54119 -2.76384 23015 ft 442 kts 185°
2026-05-05 19:19 52.51050 -2.76658 23012 ft 442 kts 185°
2026-05-05 19:19 52.46980 -2.77019 23004 ft 442 kts 185°
2026-05-05 19:19 52.44909 -2.77201 23011 ft 442 kts 185°
2026-05-05 19:20 52.41836 -2.77464 23012 ft 442 kts 185°
2026-05-05 19:20 52.38767 -2.77723 23020 ft 441 kts 185°
2026-05-05 19:20 52.35706 -2.77986 23022 ft 441 kts 185°
2026-05-05 19:20 52.32756 -2.78241 23016 ft 441 kts 185°
2026-05-05 19:21 52.29670 -2.78509 23020 ft 441 kts 185°
2026-05-05 19:21 52.26643 -2.78771 23029 ft 441 kts 185°
2026-05-05 19:21 52.25108 -2.78904 23015 ft 441 kts 185°
2026-05-05 19:22 52.23458 -2.79045 23015 ft 441 kts 185°
2026-05-05 19:22 52.21800 -2.79187 23016 ft 441 kts 185°
2026-05-05 19:22 52.19155 -2.79412 23017 ft 441 kts 185°
2026-05-05 19:23 52.16138 -2.79668 23022 ft 441 kts 185°
2026-05-05 19:23 52.13072 -2.79927 23018 ft 441 kts 185°
2026-05-05 19:23 52.10004 -2.80188 23018 ft 441 kts 185°
2026-05-05 19:23 52.06942 -2.80451 23017 ft 440 kts 185°
2026-05-05 19:24 52.03884 -2.80711 23009 ft 440 kts 185°
2026-05-05 19:24 52.00822 -2.80969 23003 ft 441 kts 185°
2026-05-05 19:24 51.97755 -2.81228 23000 ft 441 kts 185°
2026-05-05 19:24 51.94691 -2.81488 23018 ft 441 kts 185°
2026-05-05 19:25 51.91630 -2.81747 23027 ft 441 kts 185°
2026-05-05 19:25 51.88562 -2.82006 23033 ft 441 kts 185°
2026-05-05 19:25 51.85499 -2.82273 23038 ft 441 kts 185°
2026-05-05 19:25 51.82445 -2.82696 23038 ft 440 kts 188°
2026-05-05 19:26 51.79412 -2.83300 23043 ft 440 kts 189°
2026-05-05 19:26 51.76426 -2.84002 23031 ft 439 kts 190°
2026-05-05 19:26 51.73360 -2.84762 23038 ft 439 kts 191°
2026-05-05 19:26 51.70341 -2.85498 23038 ft 440 kts 190°
2026-05-05 19:27 51.67307 -2.86202 23039 ft 440 kts 189°
2026-05-05 19:27 51.64275 -2.86870 23034 ft 440 kts 189°
2026-05-05 19:27 51.61238 -2.87513 23027 ft 440 kts 189°
2026-05-05 19:27 51.58201 -2.88143 23030 ft 440 kts 189°
2026-05-05 19:28 51.55183 -2.88986 23025 ft 439 kts 196°
2026-05-05 19:28 51.52328 -2.90478 23009 ft 437 kts 202°
2026-05-05 19:28 51.49479 -2.92196 23000 ft 437 kts 202°
2026-05-05 19:28 51.46632 -2.93916 22981 ft 438 kts 202°
2026-05-05 19:29 51.43783 -2.95635 22984 ft 438 kts 202°
2026-05-05 19:29 51.40892 -2.97376 22988 ft 438 kts 202°
2026-05-05 19:29 51.38071 -2.99065 22980 ft 439 kts 202°
2026-05-05 19:29 51.35205 -3.00780 22984 ft 439 kts 202°
2026-05-05 19:30 51.32341 -3.02488 22982 ft 439 kts 202°
2026-05-05 19:30 51.29483 -3.04188 22975 ft 439 kts 202°
2026-05-05 19:30 51.26622 -3.05887 22976 ft 438 kts 202°
2026-05-05 19:30 51.23762 -3.07588 22970 ft 439 kts 202°
2026-05-05 19:31 51.20901 -3.09290 22972 ft 439 kts 202°
2026-05-05 19:31 51.18040 -3.10986 22970 ft 439 kts 202°
2026-05-05 19:31 51.15182 -3.12674 22978 ft 439 kts 202°
2026-05-05 19:31 51.12318 -3.14360 22974 ft 439 kts 202°
2026-05-05 19:32 51.09455 -3.16045 22974 ft 439 kts 202°
2026-05-05 19:32 51.06589 -3.17738 22981 ft 439 kts 202°
2026-05-05 19:32 51.03729 -3.19424 22967 ft 439 kts 202°
2026-05-05 19:32 51.00865 -3.21111 22972 ft 439 kts 202°
2026-05-05 19:33 50.98006 -3.22793 22975 ft 439 kts 202°
2026-05-05 19:33 50.95142 -3.24474 22975 ft 439 kts 202°
2026-05-05 19:33 50.92269 -3.26155 22975 ft 439 kts 202°
2026-05-05 19:33 50.89401 -3.27830 22974 ft 439 kts 202°
2026-05-05 19:34 50.86536 -3.29502 22970 ft 439 kts 202°
2026-05-05 19:34 50.83659 -3.31175 22959 ft 439 kts 202°
2026-05-05 19:34 50.80826 -3.32822 22953 ft 439 kts 202°
2026-05-05 19:35 50.75091 -3.36159 22959 ft 439 kts 202°
2026-05-05 19:35 50.72226 -3.37825 22958 ft 439 kts 202°
2026-05-05 19:35 50.69353 -3.39494 22952 ft 439 kts 202°
2026-05-05 19:35 50.66485 -3.41157 22954 ft 439 kts 202°
2026-05-05 19:36 50.63614 -3.42819 22951 ft 440 kts 202°
2026-05-05 19:36 50.60742 -3.44480 22967 ft 440 kts 202°
2026-05-05 19:36 50.57802 -3.45835 22952 ft 442 kts 193°
2026-05-05 19:36 50.54748 -3.46462 22963 ft 444 kts 185°
2026-05-05 19:37 50.51650 -3.46326 22953 ft 447 kts 175°
2026-05-05 19:37 50.48590 -3.45427 22954 ft 449 kts 166°
2026-05-05 19:37 50.45643 -3.43759 22949 ft 451 kts 157°
2026-05-05 19:37 50.42842 -3.41526 22961 ft 452 kts 154°
2026-05-05 19:38 50.40049 -3.39262 22960 ft 452 kts 154°
2026-05-05 19:38 50.37250 -3.37000 22948 ft 452 kts 154°
2026-05-05 19:38 50.34458 -3.34747 22951 ft 452 kts 154°
2026-05-05 19:38 50.31672 -3.32499 22744 ft 445 kts 154°
2026-05-05 19:39 50.28931 -3.30290 21984 ft 440 kts 154°
2026-05-05 19:39 50.26229 -3.28115 21232 ft 435 kts 154°
2026-05-05 19:39 50.23545 -3.26149 20698 ft 425 kts 160°
2026-05-05 19:39 50.20784 -3.24809 20579 ft 408 kts 167°
2026-05-05 19:40 50.18059 -3.23816 20433 ft 395 kts 168°
2026-05-05 19:40 50.15434 -3.22860 20315 ft 382 kts 168°
2026-05-05 19:40 50.12886 -3.21936 20188 ft 369 kts 167°
2026-05-05 19:40 50.10418 -3.21045 20053 ft 357 kts 167°
2026-05-05 19:41 50.08037 -3.20189 19942 ft 346 kts 167°
2026-05-05 19:41 50.05726 -3.19358 19819 ft 335 kts 167°
2026-05-05 19:41 50.03489 -3.18555 19693 ft 326 kts 166°
2026-05-05 19:41 50.01310 -3.17774 19571 ft 317 kts 166°
2026-05-05 19:42 49.99190 -3.17006 19443 ft 308 kts 163°
2026-05-05 19:42 49.97300 -3.15625 19323 ft 296 kts 140°
2026-05-05 19:42 49.95836 -3.13475 19197 ft 285 kts 129°
2026-05-05 19:42 49.94607 -3.11123 19066 ft 276 kts 125°
2026-05-05 19:43 49.93447 -3.08767 18848 ft 272 kts 125°
2026-05-05 19:43 49.92277 -3.06469 18597 ft 270 kts 126°
2026-05-05 19:43 49.91143 -3.04359 18360 ft 268 kts 128°